Flag for Laos Weather past 2 weeks in Vientiane, Laos

Now
77 °F

Passing clouds.


Feels Like: 78 °F
Forecast: 74 / 83 °F
Wind: 2 mph from Southeast

Location: Vientiane Airport

Current Time: Jul 29, 2015 at 9:21:45 PM

Latest Report: Jul 29, 2015 at 9:00 PM


Visibility: 2 mi

Pressure: 29.80 "Hg

Humidity: 89%

Dew point: 73 °F

Location of VientianeLocation

Historic Weather in Vientiane — Graph

°F

Vientiane temperature yesterday

Maximum temperature yesterday: 88 °F (at 3:30 PM)
Minimum temperature yesterday: 77 °F (at 7:00 AM)
Average temperature yesterday: 82 °F

Past Weeks' High & Low Weather Summary

 TemperatureHumidityPressure
High90 °F (Jul 18, 2:00 PM)100% (Jul 17, 6:00 AM)29.89 "Hg (Jul 17, 6:00 AM)
Low75 °F (Jul 21, 9:00 PM)59% (Jul 26, 2:30 PM)29.53 "Hg (Jul 15, 4:00 PM)
Average81 °F85%29.73 "Hg
* Reported Jul 14 8:00 PM — Jul 29 8:00 PM, Vientiane, Weather by CustomWeather, © 2015

Note: Actual official high and low records may vary slightly from our data, if they occured in-between our weather recording intervals... More about our weather records

Advertising

Vientiane weather history for previous 24 hours

 ConditionsComfort  
Time TempWeatherWind HumidityBarometerVisibility
8:00 PM
Wed, Jul 29
77 °FFog.2 mph94%29.77 "Hg2 mi
7:30 PM79 °FFog.2 mph89%29.74 "Hg2 mi
7:00 PM79 °FFog.7 mph89%29.74 "Hg3 mi
6:30 PM82 °FBroken clouds.5 mph79%29.74 "Hg4 mi
6:00 PM82 °FBroken clouds.5 mph79%29.74 "Hg4 mi
5:30 PM82 °FDrizzle. Broken clouds.7 mph79%29.71 "Hg5 mi
5:00 PM84 °FBroken clouds.7 mph74%29.71 "Hg5 mi
4:00 PM86 °FBroken clouds.2 mph70%29.74 "Hg5 mi
3:30 PM86 °FDrizzle. Broken clouds.2 mph70%29.74 "Hg5 mi
2:30 PM84 °FBroken clouds.5 mph74%29.77 "Hg5 mi
2:00 PM84 °FBroken clouds.5 mph74%29.77 "Hg5 mi
1:30 PM84 °FBroken clouds.5 mph74%29.80 "Hg5 mi
1:00 PM84 °FBroken clouds.5 mph74%29.80 "Hg5 mi
12:00 PM82 °FBroken clouds.2 mph79%29.83 "Hg4 mi
11:30 AM82 °FBroken clouds.2 mph79%29.86 "Hg4 mi
10:30 AM79 °FDrizzle. Partly sunny.2 mph89%29.86 "Hg4 mi
10:00 AM79 °FDrizzle. Partly sunny.2 mph89%29.86 "Hg3 mi
9:30 AM79 °FFog.2 mph89%29.83 "Hg3 mi
9:00 AM79 °FFog.2 mph89%29.83 "Hg3 mi
8:30 AM77 °FBroken clouds.2 mph94%29.83 "Hg4 mi
7:30 AM77 °FDrizzle. Broken clouds.2 mph89%29.80 "Hg3 mi
7:00 AM77 °FDrizzle. Broken clouds.2 mph89%29.80 "Hg3 mi
10:00 PM
Tue, Jul 28
81 °FFog.2 mph89%29.80 "Hg2 mi
9:30 PM81 °FRain. Partly cloudy.5 mph89%29.80 "Hg2 mi
9:00 PM81 °FRain. Partly cloudy.5 mph89%29.80 "Hg2 mi
Weather by CustomWeather, © 2015

See weather overviewHow to use our weather pages